User: anonymous   Login
Location: Albany
(35.0000°S, 118.0000°E)
Time: 05:25:05
(UTC-04:00)
Language:

Cosmos 1758 Rocket - Orbit

View from above orbital plane
View from above orbital plane
View from above satellite
View from above satellite

Ground track
Ground track

The orbit data is extracted from the following two-line orbital elements,

1 16792U 86046B   15108.50223505  .00000653  00000-0  77263-4 0  9999
2 16792 082.4844 226.2675 0024710 019.7358 050.1578 14.82882200557697
Epoch (UTC): 18 April 2015 12:03:13
Eccentricity: 0.0024710
inclination: 82.4844°
perigee height: 603 km
apogee height: 637 km
right ascension of ascending node: 226.2675°
argument of perigee: 19.7358°
revolutions per day: 14.82882200
mean anomaly at epoch: 50.1578°
orbit number at epoch: 55769

The dashed part of the orbit path shows where the satellite is in the earth's shadow,  

DLR